Theta_e
361 359 358 349 326 321 314 320 326 325 326 335 337 334 331 335 330 322 352 354 354 355 360 365 368 369 368 368 370 370 370 370 369 368 366 364 363 363 363 361 362 362 362 362 361 359 357 356 356
356 356 352 339 314 309 316 324 324 327 332 337 337 336 334 331 342 345 348 354 355 356 359 364 368 369 367 367 370 371 369 368 369 369 368 366 365 365 365 363 363 363 363 360 358 358 356 356 356
358 358 336 328 317 310 312 324 327 329 333 335 334 338 336 335 344 346 353 354 356 356 360 364 369 369 369 367 368 370 369 368 367 367 366 366 365 363 363 363 362 361 360 358 356 355 355 354 354
352 349 339 322 313 319 320 325 330 328 335 337 335 331 340 346 346 351 355 355 353 355 360 367 370 369 370 368 368 369 369 368 368 367 365 364 363 362 362 361 360 359 356 358 355 354 353 353 355
351 343 325 317 316 320 323 328 327 331 334 333 335 331 335 345 352 351 352 353 351 353 358 362 369 369 369 368 367 368 368 367 367 367 365 365 362 361 360 360 357 357 355 353 354 354 354 355 357
338 338 320 309 316 323 325 329 329 332 333 334 333 333 337 348 349 350 352 351 353 352 356 358 365 366 366 369 367 368 367 365 365 367 366 363 362 359 359 357 357 354 353 354 354 356 358 359 360
334 331 320 313 315 320 323 330 326 327 334 334 337 331 339 345 350 352 351 352 353 355 355 356 357 360 364 365 366 365 365 364 365 365 365 363 361 359 359 359 356 356 356 357 358 359 361 364 364
334 333 319 316 314 317 326 328 330 327 333 343 341 329 331 343 350 353 352 351 351 352 353 352 354 355 356 357 365 365 365 364 365 364 363 362 363 363 362 362 360 360 360 361 361 363 366 366 367
338 322 314 317 317 319 327 325 329 337 339 340 341 339 343 348 350 349 349 349 349 350 350 351 352 352 353 354 358 364 364 365 364 363 365 361 354 357 359 359 362 362 363 363 364 368 369 369 370
328 319 321 325 323 322 327 326 328 329 335 336 338 342 345 348 346 345 344 345 346 345 347 350 351 350 350 354 354 355 358 358 357 356 355 356 355 354 354 359 365 364 366 366 370 370 371 369 359
326 319 326 326 327 329 326 326 330 328 326 335 334 338 341 343 345 344 345 346 345 345 346 349 349 350 351 352 350 351 353 354 352 355 353 355 357 352 356 354 356 355 362 358 359 357 358 356 353
325 327 326 328 329 327 326 330 328 328 329 335 341 342 341 341 341 343 345 346 346 346 346 347 348 347 345 345 343 349 353 354 356 356 355 356 352 348 345 351 350 347 350 354 352 353 354 354 351
324 328 327 329 328 326 328 328 328 329 333 334 338 343 341 341 342 344 347 348 347 346 347 347 347 344 345 340 341 348 350 352 351 350 352 353 353 347 345 348 347 349 349 351 350 352 350 346 351
330 327 328 330 329 327 325 325 326 329 333 332 333 335 340 342 343 343 345 346 347 347 346 348 347 346 348 347 345 344 346 350 349 349 350 353 350 347 349 351 345 345 351 353 352 348 349 351 352
330 324 327 327 328 328 327 322 321 329 332 329 332 332 336 341 343 341 345 346 348 348 346 346 348 349 348 346 343 343 342 345 347 346 348 350 350 349 352 348 350 352 351 351 352 349 351 353 353
325 325 318 325 326 328 327 314 327 329 329 326 331 333 335 335 337 343 347 347 348 348 348 348 349 350 347 342 343 344 341 342 341 344 346 348 349 348 349 349 349 351 348 350 351 350 350 351 350
321 312 316 319 326 324 325 319 326 329 327 326 331 332 334 336 339 339 344 347 349 349 349 349 349 348 347 344 342 344 341 342 340 345 345 347 350 351 347 349 352 348 347 350 347 346 349 350 351
315 314 316 314 323 321 320 321 326 326 328 327 328 327 334 336 337 340 343 349 350 350 350 349 349 349 346 347 346 343 341 340 343 346 347 344 349 350 347 348 350 348 346 346 345 345 352 352 352
318 315 314 321 324 321 318 321 323 327 327 326 329 331 333 336 339 342 342 346 349 350 349 348 348 346 345 345 344 343 337 342 343 343 346 346 347 348 350 349 350 352 347 346 348 351 349 350 354
319 315 318 321 326 323 321 319 324 325 326 327 327 329 331 333 338 340 341 344 346 347 347 348 346 346 346 346 346 345 344 345 344 343 344 346 347 344 347 350 349 350 348 347 350 349 349 350 351
317 316 317 316 323 326 318 316 319 326 330 329 329 331 329 332 334 339 341 342 343 345 346 347 347 347 347 347 346 345 345 344 341 341 342 343 344 344 347 350 350 349 350 347 351 351 351 346 349
313 324 323 322 315 310 321 305 319 324 324 328 324 329 328 331 337 341 340 341 343 343 347 347 348 347 347 347 345 342 340 338 338 343 342 342 343 345 346 351 350 350 349 348 353 357 352 350 343
317 323 320 320 312 310 314 310 315 324 320 322 327 327 331 334 337 339 340 341 345 346 345 348 348 348 348 349 347 344 341 343 343 343 346 345 345 345 347 351 349 348 348 355 355 354 352 351 347
326 321 319 318 311 302 309 307 310 311 318 323 328 330 330 329 332 342 342 343 342 345 346 348 348 347 349 349 349 346 342 342 342 342 344 345 348 349 349 350 349 350 353 353 354 353 351 350 349
319 311 303 301 303 300 308 307 309 319 322 325 326 327 330 329 335 339 339 340 341 342 345 348 348 347 348 348 347 346 345 344 341 342 343 345 342 341 347 350 351 353 355 354 355 352 352 351 348
317 312 304 300 300 303 310 305 312 322 324 326 326 328 331 329 337 338 339 340 339 342 345 347 345 347 347 347 347 346 346 346 344 344 344 343 346 348 352 351 354 355 355 353 354 352 350 348 345
312 307 316 307 307 302 308 313 318 322 323 324 325 326 329 329 337 337 340 341 340 341 344 347 348 347 347 344 346 345 346 346 345 345 346 348 350 353 351 354 353 353 354 354 352 345 343 342 340
311 314 306 305 297 298 304 307 308 314 318 323 325 326 329 331 337 339 339 340 340 343 343 346 347 346 345 344 345 345 345 345 345 348 346 347 349 350 352 352 353 354 350 348 344 343 341 338 334
309 308 308 308 303 298 301 304 319 317 322 323 326 327 329 333 337 338 340 342 342 344 344 345 345 347 345 344 345 345 345 346 348 346 346 346 348 350 351 354 351 347 347 346 343 340 338 333 331
314 311 308 303 301 306 303 306 323 321 322 325 324 326 329 332 336 338 340 341 341 344 345 345 346 345 344 343 343 343 345 346 346 343 344 351 351 354 354 352 348 345 344 339 338 336 334 331 331
Wind_Speed
10 6 2 3 4 3 4 2 4 6 12 23 20 17 18 13 7 11 6 17 17 13 11 15 18 20 20 19 20 20 19 19 19 17 17 16 17 15 13 11 10 9 8 7 6 5 5 4 4
6 8 3 3 4 5 4 5 7 3 14 21 21 18 18 15 14 12 10 18 18 13 9 13 18 20 20 19 19 20 19 20 18 17 16 15 14 12 11 10 8 7 8 6 5 4 3 3 3
7 9 3 2 1 5 4 2 6 8 10 12 9 12 9 14 8 7 14 19 17 14 10 15 19 19 19 18 18 18 19 18 17 16 16 15 13 12 11 9 8 7 6 4 3 3 2 3 3
4 2 2 1 7 7 6 8 7 9 23 20 16 14 8 15 7 12 19 20 16 14 10 16 19 19 19 19 17 17 17 16 15 13 14 14 12 10 9 7 6 5 3 3 2 1 2 2 3
1 2 3 4 7 7 6 8 8 18 16 20 16 12 10 14 18 21 19 17 17 13 11 11 18 18 18 18 17 16 16 15 14 12 12 12 11 8 7 6 5 3 2 2 0 1 2 4 7
5 1 2 5 8 11 10 10 12 19 22 21 18 15 9 19 20 16 19 17 16 13 11 10 17 18 16 17 16 15 15 14 11 12 11 11 9 7 5 4 3 2 1 1 2 4 6 8 10
4 4 5 8 10 6 11 12 10 12 23 17 18 14 8 7 16 19 18 17 16 13 11 10 9 16 17 13 14 15 14 13 12 10 10 9 9 6 5 4 4 3 3 4 5 7 9 10 13
2 5 1 4 7 10 11 10 17 13 19 24 19 8 10 9 17 17 18 17 14 12 10 9 8 9 11 8 13 13 14 13 11 9 8 8 9 7 6 6 6 6 7 9 9 10 11 12 15
4 4 3 7 12 7 9 12 12 20 23 21 11 19 23 19 20 18 16 14 12 9 9 7 7 7 8 8 8 12 15 12 10 8 8 5 3 5 8 9 11 10 11 12 12 12 12 14 16
6 4 3 9 12 12 14 10 13 17 22 22 19 16 22 20 18 18 14 12 13 11 9 8 8 7 6 4 4 4 5 4 5 5 5 4 5 6 8 8 12 11 12 14 15 14 15 14 5
7 6 6 10 13 14 13 11 14 18 17 23 23 19 21 19 18 17 16 15 15 13 9 11 8 7 7 5 3 1 2 2 3 6 5 5 4 4 5 3 4 4 10 6 8 6 6 5 6
8 4 13 5 12 10 8 13 12 18 19 18 25 25 17 17 18 16 16 18 17 15 14 12 10 7 5 3 3 3 3 1 3 3 2 2 3 3 3 4 5 4 2 7 5 3 7 6 8
2 7 13 9 13 9 5 13 17 18 20 18 21 25 22 17 15 16 16 17 17 16 16 15 13 8 5 5 3 1 0 1 2 3 3 3 4 4 2 2 1 3 3 2 3 1 4 3 5
4 5 10 16 18 9 11 8 9 14 15 14 14 18 24 21 19 15 15 17 17 16 14 15 13 10 7 4 3 2 1 1 2 3 3 5 3 2 4 4 3 3 2 2 2 3 4 5 5
13 3 8 13 12 8 7 6 4 13 16 11 11 15 16 21 20 17 21 20 18 16 17 15 14 11 9 7 4 4 2 1 3 1 4 6 4 4 5 4 5 4 4 4 5 5 5 5 6
6 6 2 2 6 5 7 4 4 7 8 11 13 11 12 10 14 20 20 16 16 18 17 16 12 14 11 8 5 4 4 2 2 1 3 5 5 4 4 4 1 3 3 5 3 4 5 4 4
6 3 5 10 5 2 2 2 9 7 7 5 16 15 15 11 15 15 19 17 16 16 15 14 14 12 13 8 6 4 5 3 3 2 2 5 5 6 3 3 4 4 4 4 3 4 4 6 6
4 1 1 7 1 7 5 7 6 4 6 4 4 6 14 16 13 18 20 19 17 15 12 12 9 11 11 6 5 4 4 4 4 3 3 4 3 6 3 4 5 4 4 4 5 5 4 3 3
7 6 9 8 14 4 9 9 12 5 4 7 6 10 6 2 16 15 15 18 16 15 13 10 10 11 8 4 6 3 5 3 4 4 4 4 3 5 5 4 4 5 4 4 5 3 4 4 3
15 12 11 13 14 12 6 16 19 14 7 6 8 17 15 6 10 12 11 15 15 14 13 11 10 10 8 6 5 3 3 2 3 4 4 4 4 4 5 5 4 4 4 6 4 4 3 2 3
7 11 5 10 9 7 8 6 17 7 17 9 7 11 9 9 7 14 7 15 14 15 14 12 11 10 7 6 4 2 2 1 2 2 3 5 6 5 5 5 4 5 3 3 4 4 4 2 3
4 9 15 10 7 2 8 2 2 16 16 14 12 14 14 14 11 20 21 15 15 13 13 13 12 11 7 7 5 6 5 4 4 4 4 5 6 6 5 6 4 5 2 4 4 4 3 2 3
8 6 3 5 4 3 1 1 4 7 11 12 18 17 17 21 21 20 18 19 16 15 13 13 13 12 10 9 7 6 5 3 3 4 6 5 6 7 7 6 6 5 2 3 5 4 4 2 1
4 2 7 7 3 4 5 5 4 4 2 8 1 14 19 16 12 11 16 13 14 14 13 13 14 12 11 10 9 9 8 6 3 3 4 5 3 5 7 7 5 5 3 4 3 1 2 1 0
11 6 2 5 4 5 6 1 8 15 14 13 7 16 21 15 12 26 21 17 15 16 15 13 13 10 10 10 9 8 7 7 7 5 4 4 3 3 6 6 4 3 3 2 2 1 2 0 0
9 6 4 5 4 3 3 4 7 11 11 14 12 14 13 16 19 19 15 13 17 16 17 15 13 10 12 10 9 8 8 4 5 6 4 4 4 3 2 5 5 4 3 2 3 2 3 4 4
10 9 9 1 6 3 1 5 14 13 18 16 20 23 18 15 20 21 19 18 18 17 18 17 14 10 11 8 8 7 6 7 5 6 3 3 3 3 4 4 4 3 3 3 5 4 5 6 5
7 2 6 5 4 6 6 5 6 16 19 12 23 20 26 21 22 23 22 19 13 15 15 15 13 11 11 8 7 7 7 6 6 6 5 2 2 3 5 3 5 5 6 6 6 5 5 6 4
9 2 5 9 7 9 5 7 11 16 12 3 7 7 23 23 25 21 19 19 18 17 15 13 11 11 8 8 7 7 6 6 6 5 4 2 2 5 5 6 6 6 6 5 6 7 6 7 6
9 9 7 6 6 2 3 7 8 8 7 12 8 9 13 23 23 20 20 20 19 19 16 15 12 11 9 9 6 8 7 7 7 6 5 3 3 2 6 6 5 6 7 6 6 7 6 7 7
Wind_Direction
196 193 222 288 54 86 96 9 224 50 65 74 68 76 79 52 57 110 145 123 119 119 123 118 116 113 110 111 111 108 108 110 110 108 107 105 105 105 104 104 106 106 103 98 88 76 62 50 47
213 204 232 278 87 68 82 179 100 96 102 99 94 94 66 67 79 116 122 121 121 125 119 115 116 116 113 115 116 116 113 111 111 112 112 113 111 110 108 103 94 88 87 84 83 70 55 34 10
278 278 52 357 219 136 128 239 235 154 136 113 85 59 67 120 92 112 122 123 117 115 119 122 118 118 118 119 117 114 114 113 114 116 115 113 110 106 98 94 97 96 89 82 60 37 31 22 340
256 4 346 23 102 85 137 207 229 87 97 104 111 76 71 122 103 116 119 116 116 114 117 121 121 123 123 120 118 114 114 117 116 116 115 115 112 108 106 106 100 97 96 71 45 28 14 349 299
15 93 281 160 144 140 170 181 105 99 96 96 95 109 96 96 113 119 115 113 113 116 118 119 122 125 125 123 123 122 121 122 122 122 122 115 108 107 105 102 104 91 96 100 66 288 279 275 275
14 50 278 110 113 154 175 179 134 113 106 105 93 108 95 131 121 129 121 118 116 116 109 113 119 117 122 126 126 125 124 124 127 130 125 119 117 114 120 117 118 138 170 209 245 263 273 276 275
318 289 255 116 105 125 140 137 126 113 135 129 127 101 117 73 118 120 116 115 115 110 106 107 112 121 114 123 126 126 126 130 133 137 134 131 129 137 145 158 173 192 220 244 255 266 271 275 277
287 284 90 33 121 87 89 96 91 85 67 123 135 139 142 139 98 109 106 112 116 118 117 120 122 127 124 127 137 140 136 137 143 141 148 167 152 166 179 190 208 223 230 240 250 257 263 270 274
283 264 148 161 110 110 98 83 104 85 81 68 90 114 124 122 123 116 116 111 114 117 132 128 123 117 120 136 151 150 146 147 153 168 174 172 197 178 193 207 215 223 239 247 250 258 265 265 269
229 277 245 118 137 146 115 123 121 108 106 102 106 113 126 130 129 130 133 134 136 135 132 149 133 135 122 116 117 142 163 148 164 178 179 187 227 213 194 211 214 228 245 258 261 261 264 274 295
221 212 121 74 117 119 125 151 145 125 121 136 139 149 150 144 149 150 148 147 148 144 141 150 143 149 140 152 154 134 141 185 216 171 183 216 251 230 185 202 224 227 247 261 268 279 271 280 262
261 257 89 100 95 69 105 115 86 113 135 140 151 155 153 160 160 153 156 150 152 152 150 149 156 157 148 144 148 182 114 133 156 188 74 5 299 252 188 211 217 230 264 256 259 266 258 224 266
187 340 104 106 100 107 125 113 121 123 137 146 152 153 162 167 163 156 161 150 152 154 159 158 162 165 158 152 168 114 253 215 142 56 46 321 296 263 145 240 234 237 208 240 237 251 290 335 325
232 269 6 66 12 158 116 119 110 132 131 147 160 140 164 161 178 158 157 150 160 158 163 161 165 164 154 148 146 142 161 146 70 54 322 314 292 149 55 4 332 346 37 283 272 325 353 325 330
290 224 37 30 29 23 347 63 147 144 140 156 131 141 154 163 176 161 161 158 160 163 165 171 168 159 153 144 164 158 175 130 94 31 314 343 314 48 36 8 329 332 4 343 8 323 19 354 340
265 44 47 326 50 360 46 211 186 67 150 160 144 144 136 145 145 148 150 156 147 152 168 168 171 163 159 156 183 174 178 195 202 142 321 342 330 29 33 4 333 320 340 24 22 350 358 350 339
32 167 341 326 127 172 123 277 259 108 99 45 152 158 151 151 143 149 157 153 145 150 157 168 169 171 165 161 173 181 191 173 223 219 269 323 349 357 32 7 307 351 3 13 351 1 9 341 337
201 185 228 245 306 184 226 262 279 160 124 100 165 70 160 166 150 149 142 148 145 151 158 163 158 169 159 151 155 183 179 187 179 192 239 276 332 350 353 353 331 358 18 357 358 358 342 320 325
252 146 224 256 237 236 220 238 245 194 184 167 203 87 17 240 156 143 148 142 146 150 153 161 159 152 151 157 175 171 188 184 173 172 212 234 285 319 337 327 339 7 28 333 347 339 337 320 347
161 191 200 262 227 200 317 243 216 207 231 210 161 146 191 126 183 128 138 141 151 155 155 159 160 154 159 169 176 155 164 186 166 167 194 215 236 271 303 313 313 336 350 335 338 347 332 294 9
198 194 256 235 150 97 199 292 287 8 327 298 182 161 192 169 204 144 128 157 153 156 160 157 161 167 164 164 148 142 135 63 109 178 188 216 221 226 261 283 269 292 297 310 315 329 339 325 324
210 179 214 236 27 75 173 203 329 203 232 265 260 190 186 189 180 162 179 165 168 165 154 157 162 170 172 176 167 173 183 178 193 183 189 205 208 218 232 257 263 283 282 310 295 310 301 9 350
254 160 156 80 68 91 28 324 188 199 242 245 248 226 198 201 173 172 170 167 163 157 164 160 162 172 177 186 186 182 179 180 169 179 181 193 208 215 221 232 253 265 289 279 295 316 13 34 31
143 49 42 33 39 53 205 141 269 199 273 300 23 249 206 194 184 101 143 175 151 154 159 164 168 176 174 179 184 184 183 190 162 186 186 197 194 201 218 225 231 233 263 288 284 11 65 34 304
166 112 294 352 23 221 211 191 237 271 232 229 282 297 190 185 144 150 184 158 156 160 164 168 163 171 169 178 183 183 189 178 190 208 195 186 200 208 221 203 232 205 239 253 140 106 90 134 145
131 213 199 245 194 209 251 325 274 280 311 283 283 274 220 169 151 163 168 163 158 165 167 167 168 165 172 175 181 184 187 184 191 198 209 210 185 171 174 176 207 211 213 181 126 81 60 44 60
214 221 180 56 322 74 250 301 294 253 270 281 296 230 215 180 158 164 171 161 170 169 164 165 168 166 167 175 155 172 170 178 186 195 193 160 155 154 162 177 149 110 84 100 97 88 61 68 61
241 224 65 18 90 5 332 272 253 298 308 355 343 174 184 173 168 162 166 167 166 164 162 158 158 153 160 161 150 165 168 174 174 149 168 161 228 231 183 155 121 106 81 78 105 78 74 81 56
241 101 82 105 162 152 201 241 232 236 269 46 230 287 170 152 157 164 163 166 172 156 160 157 158 155 161 139 164 156 165 155 145 134 148 205 270 240 137 120 108 114 104 97 101 94 86 76 72
193 205 148 132 254 245 167 245 261 263 298 295 299 268 231 155 156 163 164 164 166 160 160 160 156 152 149 155 155 162 165 144 147 162 171 115 54 292 127 114 105 88 91 93 101 92 88 89 77